Wind_Speed
44 41 35 46 39 40 40 36 50 49 43 43 43 42 47 44 37 39 41 40 45 45 49 42 44 44 44 46 44 41 46 52 55 57 57 57 54 54 57 56 58 57 56 56 55 60 57 53 53
54 47 42 46 48 44 42 39 51 49 48 43 44 41 40 38 38 42 43 47 46 48 48 51 52 46 45 42 41 43 51 53 56 57 58 59 58 59 60 62 63 60 58 57 57 59 58 55 54
55 52 49 48 52 50 47 47 48 51 47 49 47 49 43 44 45 45 48 51 52 49 54 54 51 49 43 41 43 47 48 53 56 59 61 58 57 60 63 66 66 63 58 57 57 63 57 54 55
57 53 54 53 52 47 48 53 58 57 57 51 51 51 49 46 47 49 53 54 51 53 56 57 50 48 43 43 44 45 50 55 59 59 56 55 62 65 68 68 69 63 58 60 62 64 58 54 56
61 62 53 62 66 61 54 55 58 55 51 49 55 59 54 49 54 57 58 53 47 51 50 49 44 47 47 49 48 53 56 58 60 62 63 65 65 65 71 71 67 60 60 62 64 62 60 59 59
58 60 56 56 58 62 62 56 53 53 55 54 52 53 57 56 53 51 51 43 37 44 47 51 54 56 55 53 55 58 62 63 65 66 68 66 64 69 72 70 69 62 63 64 64 64 61 60 59
77 74 68 59 63 62 64 59 62 59 58 56 57 58 57 56 53 49 47 43 49 52 50 51 51 54 58 58 60 62 66 68 69 67 68 68 69 73 73 70 70 65 66 68 66 66 62 62 58
82 78 80 72 67 61 69 62 62 60 63 59 56 55 56 55 54 50 43 44 47 47 46 47 50 53 59 68 66 65 64 66 65 71 68 70 76 76 76 73 73 69 70 69 65 65 63 60 55
78 76 72 71 67 62 69 62 63 63 61 59 57 58 62 61 57 53 47 48 50 52 51 53 55 59 60 65 67 65 61 67 70 71 70 76 79 77 79 75 74 73 73 69 66 64 62 55 50
80 71 65 69 71 68 67 66 66 66 62 66 64 65 66 66 69 64 62 59 57 58 60 60 62 60 58 62 67 66 65 71 72 73 74 78 81 79 80 77 77 76 73 70 68 64 57 51 49
83 76 75 76 73 73 73 70 70 67 64 69 71 71 73 71 69 69 65 63 61 65 63 59 61 60 60 60 64 67 68 72 74 75 77 79 81 80 80 78 77 76 71 70 68 63 53 54 52
90 81 85 82 82 80 74 77 76 75 69 72 74 74 72 71 69 67 68 66 68 70 73 66 55 58 58 62 65 68 70 74 76 78 81 81 79 79 79 78 76 74 68 68 67 61 57 54 53
95 86 92 88 88 86 84 82 80 79 79 77 69 69 68 69 71 71 68 67 66 68 69 63 61 63 65 68 69 71 75 79 81 82 82 80 78 78 77 77 75 70 68 67 66 62 58 53 50
99 99 94 87 81 78 80 77 79 73 75 71 73 75 75 68 63 63 62 64 65 66 66 65 70 71 72 74 75 77 80 81 83 82 80 78 77 76 77 76 69 64 66 67 65 62 58 52 47
99 105 102 92 88 84 87 79 74 71 70 71 74 76 72 67 62 62 66 67 69 70 71 72 74 72 75 77 77 81 83 82 80 79 77 76 77 77 73 69 65 65 66 66 64 59 52 46 40
95 95 90 82 86 82 89 75 68 71 77 78 76 74 72 67 66 68 71 70 71 73 73 74 78 80 80 78 82 82 77 77 77 75 75 74 72 71 68 64 64 66 67 66 61 52 46 40 35
98 90 85 80 86 88 95 66 76 79 83 85 79 75 72 69 73 73 72 71 73 75 77 81 82 84 86 85 79 74 74 73 72 69 68 67 67 62 64 62 64 66 67 64 58 54 49 44 42
95 93 95 89 89 94 94 79 75 81 83 82 77 75 69 68 72 76 75 76 77 81 82 84 85 87 86 81 76 73 68 66 64 62 62 60 58 60 60 62 63 65 63 60 55 50 46 43 41
110 102 97 91 90 92 86 79 72 79 75 73 72 72 73 70 76 73 78 75 78 80 82 84 85 81 75 74 69 66 64 62 58 57 57 47 52 54 59 60 61 60 60 55 49 48 47 44 42
107 103 95 98 95 93 93 83 75 75 72 71 72 72 69 70 71 72 73 80 79 77 77 72 68 67 69 69 66 63 59 57 54 53 50 45 50 53 55 56 56 56 53 46 44 41 38 37 36
103 102 100 103 103 102 102 97 88 74 75 74 69 71 73 77 76 77 79 76 70 66 65 60 59 61 65 62 57 53 52 51 50 48 46 47 49 51 53 52 50 47 40 35 32 31 29 27 27
97 97 97 98 95 94 101 91 87 82 78 75 74 77 82 79 76 73 69 64 61 57 57 59 59 60 57 53 46 43 44 46 45 43 44 45 48 50 48 47 40 33 29 25 23 22 21 20 18
99 99 97 95 90 90 90 89 67 79 78 81 76 74 74 70 63 61 59 57 58 55 52 54 54 50 46 42 38 38 40 40 39 40 41 43 45 45 45 39 30 23 21 20 20 18 16 14 12
101 100 100 96 91 86 80 79 65 71 73 70 62 59 57 56 53 54 53 50 48 46 47 49 43 39 35 32 31 32 34 36 36 38 39 40 39 41 38 25 19 18 16 13 12 10 10 9 9
96 96 97 95 92 79 76 72 62 65 66 58 52 49 49 49 47 43 39 37 42 41 39 35 32 31 26 26 26 28 32 34 36 36 37 35 33 33 30 18 13 11 12 11 10 6 7 6 5
99 96 91 83 79 70 67 57 53 53 48 45 45 42 41 36 31 32 32 34 35 33 28 25 23 19 21 23 24 28 31 33 34 35 32 26 27 26 18 11 8 9 9 4 8 4 3 1 3
103 96 90 86 80 73 62 53 50 52 39 33 34 35 33 25 25 27 28 31 26 22 21 15 13 17 21 22 26 29 31 33 31 29 23 23 23 20 11 5 7 8 7 13 7 6 3 1 1
103 99 98 89 83 73 63 55 43 48 37 27 25 27 23 21 20 21 25 18 14 12 11 13 15 17 21 26 28 27 29 29 25 21 17 20 19 17 6 3 3 12 9 10 9 1 8 8 9
101 98 96 94 86 73 65 56 48 50 41 33 30 30 26 20 19 18 17 10 8 9 11 18 20 21 26 28 24 28 27 20 18 16 15 17 14 12 4 2 4 11 7 5 3 4 12 15 16
95 98 93 89 83 76 64 56 62 54 41 35 34 29 25 21 15 13 13 14 11 11 14 18 20 23 27 22 25 27 22 19 15 15 13 14 12 6 5 9 6 5 7 13 1 12 18 18 19
Wind_Direction
241 247 260 256 263 252 257 268 264 272 270 271 271 270 269 277 281 272 282 281 289 296 298 294 300 299 295 294 299 296 301 310 309 309 309 308 307 306 303 306 304 300 295 297 291 300 297 287 283
250 244 245 249 255 252 254 264 266 269 272 272 277 280 278 277 279 274 279 281 289 294 295 295 295 294 296 293 295 298 307 308 306 306 304 305 303 304 303 303 303 299 294 297 290 294 293 289 280
245 246 249 251 255 257 256 259 258 267 274 270 270 274 271 274 276 280 279 284 290 295 295 292 288 291 287 294 293 301 307 310 310 308 304 301 301 302 304 305 302 298 294 295 291 296 290 282 278
240 249 254 250 255 258 261 259 261 266 266 268 270 270 274 270 275 276 283 287 291 293 290 291 289 287 283 289 294 299 304 309 311 308 308 303 301 300 306 304 301 298 297 297 296 298 292 283 276
245 248 253 250 255 258 259 259 264 265 267 268 271 274 280 282 276 275 276 281 289 287 289 289 284 285 285 285 289 296 301 306 309 307 306 307 304 300 305 303 301 297 297 297 300 299 292 286 282
240 246 245 252 252 257 260 261 263 264 266 269 270 277 282 280 276 273 276 280 285 286 291 290 288 291 293 293 292 298 303 308 308 305 304 303 308 306 306 305 303 298 300 301 303 298 292 288 285
248 247 249 250 256 254 256 257 260 260 264 265 266 273 276 274 269 271 274 273 279 278 283 288 287 290 300 302 301 303 307 307 306 305 306 305 307 309 308 307 304 303 304 305 304 302 296 293 288
253 255 253 251 250 256 257 259 258 260 260 263 267 269 270 272 273 274 274 274 273 278 283 285 287 291 293 299 303 305 305 301 304 308 304 304 309 309 308 308 305 305 307 307 306 303 299 295 288
251 251 248 252 250 249 259 254 257 257 263 264 263 267 269 270 272 272 270 271 272 276 278 281 283 285 290 295 300 300 301 300 305 309 307 304 308 309 307 307 307 307 309 307 306 304 299 292 292
249 247 248 250 253 251 255 254 256 258 260 266 266 268 271 273 274 273 274 275 277 279 283 284 285 287 289 292 294 296 300 300 306 308 307 305 308 308 307 308 308 308 309 308 308 306 300 296 296
248 249 248 250 251 250 252 260 257 262 262 265 270 272 269 272 272 276 278 279 286 289 291 294 295 290 293 291 294 297 299 301 304 304 306 308 307 307 307 308 308 308 309 308 308 307 301 303 299
246 247 250 251 253 251 254 259 264 265 266 269 271 271 274 276 277 278 282 285 284 286 290 296 292 293 295 294 296 298 299 303 306 305 305 305 306 306 307 307 308 309 309 309 310 308 307 303 299
247 249 250 252 255 256 255 259 262 267 268 269 271 272 273 276 280 282 284 284 287 286 287 288 288 292 296 296 298 300 300 303 305 303 302 304 304 305 306 307 307 309 308 311 310 310 306 301 294
248 246 249 252 256 258 259 259 261 267 266 266 266 268 271 276 279 282 283 284 285 286 287 286 286 290 294 299 302 302 300 301 300 300 300 301 302 304 306 306 307 308 310 311 310 308 304 299 290
251 251 252 254 254 260 263 259 263 258 258 261 265 270 273 277 280 279 283 285 286 286 287 287 289 290 293 297 299 299 297 298 298 297 299 301 302 304 304 305 309 307 310 308 308 305 299 293 283
249 249 252 256 260 259 256 256 256 255 259 262 264 269 274 275 277 277 280 283 286 286 287 290 292 293 295 294 296 297 294 294 294 296 299 301 303 303 303 307 308 310 308 307 305 298 287 279 270
250 251 254 257 257 256 259 251 258 259 260 261 265 268 272 275 278 278 278 281 284 285 286 289 290 292 293 295 294 291 291 291 293 298 300 302 303 302 303 306 307 307 306 304 302 296 287 276 262
251 252 253 250 250 253 254 249 251 254 260 262 266 269 271 273 276 274 276 281 283 283 286 287 289 289 290 290 289 286 286 288 293 297 299 301 300 299 302 305 306 305 303 303 299 290 283 279 267
250 251 251 251 248 250 254 252 249 255 258 262 265 267 269 271 278 278 278 279 286 287 287 287 288 290 288 286 284 285 286 289 293 295 296 297 294 296 300 303 304 304 304 302 296 291 288 285 275
249 246 246 244 247 249 252 257 252 256 260 259 263 264 271 273 277 279 279 285 286 283 285 286 287 285 284 285 286 287 287 288 290 291 296 294 297 298 301 306 308 306 302 299 293 289 287 284 279
247 249 248 249 249 250 254 256 258 257 258 259 263 265 268 268 279 282 281 280 279 282 284 286 284 283 283 286 288 289 289 290 292 296 297 297 300 302 306 309 309 304 301 297 295 292 288 283 279
245 247 247 248 250 252 255 253 256 253 253 258 261 267 265 272 277 278 277 280 282 282 281 281 282 280 281 285 289 292 294 296 298 297 301 303 302 306 307 312 310 306 302 298 299 300 293 282 277
242 243 244 247 249 250 254 257 254 256 258 257 260 263 267 272 273 275 276 277 276 279 279 279 279 282 286 285 287 292 293 294 294 299 303 303 305 306 312 310 308 309 309 311 306 303 298 285 275
241 243 245 246 248 249 252 256 255 254 254 258 262 264 267 271 272 269 270 273 276 277 276 275 279 285 284 285 288 289 291 293 299 302 305 304 306 305 309 308 307 307 313 325 323 320 320 310 288
243 245 245 246 249 250 248 252 252 254 254 259 264 267 267 266 264 263 269 270 271 274 276 283 282 283 285 283 286 288 291 299 301 306 301 303 301 306 308 310 326 328 322 317 329 345 346 345 340
239 242 244 245 246 245 245 247 249 250 255 261 258 259 256 253 250 260 265 269 269 281 287 279 276 279 277 278 285 290 302 304 304 300 301 300 303 300 296 306 327 333 340 355 15 39 22 40 66
238 239 241 243 245 245 246 242 238 251 252 246 247 242 243 242 252 259 263 267 282 289 281 277 278 282 282 286 292 300 304 302 302 295 297 309 304 301 277 322 326 12 27 13 43 59 316 218 6
237 236 237 238 240 242 243 241 235 242 245 229 226 230 235 243 256 257 260 281 283 273 272 280 290 285 293 296 301 303 302 302 293 295 294 310 303 302 268 341 351 35 23 30 97 272 32 37 37
232 235 236 235 235 235 235 240 235 236 233 225 222 235 243 241 257 269 274 269 248 262 296 297 289 290 299 302 304 306 306 295 292 274 291 317 307 299 222 109 100 43 29 92 114 46 72 53 33
229 230 231 233 234 233 229 229 231 237 235 231 232 233 244 239 242 282 260 240 252 273 299 293 282 292 301 303 302 310 304 297 275 272 296 323 315 287 190 134 142 83 69 88 193 73 72 65 64
Height
10933 10932 10933 10933 10932 10931 10932 10936 10931 10937 10941 10938 10940 10945 10947 10946 10947 10941 10944 10943 10943 10940 10938 10935 10933 10930 10926 10924 10920 10917 10913 10910 10905 10902 10898 10894 10891 10887 10883 10880 10876 10873 10869 10867 10863 10858 10855 10856 10855
10926 10926 10925 10924 10924 10923 10926 10929 10923 10929 10932 10929 10928 10940 10942 10938 10938 10935 10938 10935 10937 10933 10931 10928 10924 10923 10920 10917 10914 10912 10907 10903 10898 10894 10890 10886 10882 10877 10873 10870 10866 10861 10858 10857 10855 10852 10847 10842 10842
10916 10917 10918 10918 10915 10914 10918 10919 10916 10920 10922 10919 10922 10928 10936 10937 10934 10930 10928 10928 10926 10925 10921 10917 10915 10915 10913 10910 10909 10905 10900 10896 10891 10887 10882 10878 10874 10869 10864 10858 10852 10847 10845 10844 10841 10838 10835 10832 10828
10905 10910 10912 10911 10906 10908 10909 10905 10910 10911 10913 10914 10916 10917 10927 10934 10930 10925 10920 10922 10919 10917 10915 10911 10908 10907 10906 10904 10900 10897 10893 10888 10883 10878 10874 10870 10866 10860 10854 10849 10841 10836 10833 10830 10826 10823 10820 10818 10816
10895 10900 10905 10902 10897 10899 10896 10898 10901 10905 10905 10909 10908 10909 10915 10923 10925 10923 10919 10918 10914 10910 10907 10904 10899 10896 10896 10895 10892 10887 10884 10880 10874 10869 10864 10860 10855 10849 10844 10838 10832 10826 10822 10819 10815 10810 10805 10801 10798
10885 10892 10895 10892 10888 10892 10883 10894 10893 10893 10895 10900 10902 10903 10906 10911 10913 10913 10914 10912 10906 10902 10898 10894 10891 10883 10882 10882 10883 10878 10872 10868 10862 10858 10853 10848 10843 10837 10831 10826 10821 10815 10810 10805 10800 10795 10789 10785 10782
10874 10884 10884 10885 10882 10883 10865 10884 10884 10885 10885 10887 10893 10894 10896 10898 10903 10906 10907 10903 10898 10897 10894 10888 10881 10878 10866 10866 10868 10868 10859 10855 10850 10845 10840 10835 10831 10824 10817 10812 10807 10802 10796 10791 10785 10778 10772 10766 10763
10862 10874 10877 10879 10873 10871 10854 10872 10872 10876 10873 10881 10881 10887 10891 10892 10894 10896 10898 10895 10892 10887 10886 10883 10878 10875 10866 10852 10855 10857 10852 10845 10838 10832 10828 10822 10818 10811 10804 10798 10792 10787 10782 10776 10770 10762 10755 10750 10745
10850 10868 10866 10866 10863 10861 10835 10863 10861 10861 10863 10869 10875 10876 10882 10884 10881 10886 10886 10884 10885 10883 10883 10877 10875 10869 10863 10850 10844 10843 10843 10832 10826 10820 10816 10809 10804 10799 10791 10785 10778 10772 10767 10760 10754 10747 10740 10734 10729
10840 10853 10854 10847 10848 10850 10834 10852 10848 10848 10858 10855 10864 10867 10871 10867 10869 10872 10873 10873 10875 10873 10868 10869 10866 10859 10853 10846 10835 10832 10832 10822 10814 10809 10802 10796 10790 10786 10778 10771 10764 10758 10751 10744 10737 10731 10724 10718 10713
10823 10840 10833 10833 10834 10834 10834 10832 10838 10841 10855 10848 10850 10855 10857 10856 10855 10854 10857 10859 10860 10858 10856 10855 10853 10844 10842 10834 10825 10820 10819 10809 10803 10798 10790 10784 10778 10772 10765 10758 10750 10743 10737 10729 10721 10715 10710 10703 10696
10806 10819 10815 10820 10817 10819 10832 10823 10830 10837 10845 10838 10840 10845 10844 10840 10842 10848 10846 10847 10847 10845 10846 10844 10837 10831 10831 10823 10816 10809 10806 10797 10792 10785 10778 10771 10765 10759 10753 10746 10737 10729 10722 10715 10706 10699 10695 10689 10683
10792 10803 10798 10803 10807 10813 10813 10821 10825 10827 10828 10829 10827 10826 10830 10834 10834 10833 10833 10834 10834 10836 10836 10835 10826 10822 10817 10812 10805 10799 10793 10785 10779 10773 10765 10758 10751 10745 10740 10733 10725 10717 10709 10702 10693 10686 10680 10676 10673
10775 10777 10784 10792 10801 10800 10797 10810 10812 10821 10809 10812 10812 10816 10820 10823 10823 10823 10822 10822 10823 10823 10822 10823 10814 10812 10805 10801 10795 10788 10780 10773 10766 10759 10752 10745 10737 10732 10727 10720 10713 10704 10696 10688 10680 10674 10668 10664 10660
10751 10757 10767 10786 10789 10787 10775 10802 10811 10795 10791 10800 10799 10806 10813 10813 10811 10810 10811 10810 10808 10808 10806 10806 10799 10800 10795 10790 10784 10776 10768 10761 10753 10745 10738 10732 10725 10718 10713 10705 10699 10693 10684 10676 10670 10663 10657 10652 10648
10729 10738 10758 10778 10768 10768 10742 10801 10786 10778 10781 10789 10793 10798 10802 10802 10800 10799 10798 10797 10795 10794 10793 10790 10783 10782 10780 10777 10773 10766 10756 10748 10739 10731 10724 10717 10711 10705 10698 10692 10685 10676 10670 10665 10659 10654 10649 10645 10642
10713 10737 10747 10758 10740 10734 10721 10794 10767 10766 10767 10779 10785 10787 10791 10792 10789 10787 10785 10786 10784 10782 10781 10772 10772 10767 10763 10762 10758 10752 10744 10737 10729 10721 10713 10706 10698 10691 10685 10680 10675 10667 10658 10652 10646 10641 10637 10633 10632
10699 10707 10728 10734 10717 10709 10715 10764 10756 10752 10754 10765 10774 10776 10779 10780 10779 10773 10774 10774 10773 10770 10766 10761 10761 10754 10748 10746 10744 10738 10732 10726 10720 10713 10705 10698 10690 10681 10673 10670 10663 10656 10647 10640 10635 10628 10623 10620 10618
10678 10691 10704 10705 10701 10693 10711 10731 10746 10742 10750 10756 10762 10762 10763 10769 10764 10764 10764 10763 10762 10755 10747 10747 10745 10737 10731 10727 10728 10723 10718 10715 10712 10705 10699 10694 10686 10679 10670 10663 10654 10644 10635 10630 10621 10615 10611 10607 10607
10653 10668 10688 10683 10681 10685 10685 10717 10737 10737 10741 10746 10747 10751 10756 10754 10753 10754 10753 10750 10749 10741 10737 10735 10732 10723 10715 10710 10708 10708 10706 10703 10701 10697 10693 10687 10679 10670 10662 10653 10643 10632 10623 10617 10610 10605 10601 10597 10594
10638 10647 10655 10658 10661 10677 10674 10698 10721 10728 10730 10731 10739 10742 10743 10738 10745 10743 10739 10736 10731 10732 10727 10722 10716 10710 10704 10699 10697 10694 10692 10689 10687 10684 10680 10676 10667 10658 10650 10643 10634 10624 10616 10609 10603 10598 10594 10591 10587
10618 10627 10629 10637 10648 10668 10654 10694 10704 10710 10714 10719 10726 10731 10725 10732 10733 10729 10721 10721 10719 10718 10714 10710 10705 10698 10693 10690 10687 10683 10680 10677 10675 10671 10668 10663 10654 10646 10640 10633 10626 10618 10611 10605 10599 10593 10589 10586 10583
10601 10602 10610 10622 10636 10646 10657 10666 10708 10685 10700 10698 10711 10717 10718 10721 10719 10714 10709 10708 10705 10705 10702 10698 10693 10689 10684 10682 10677 10674 10672 10669 10666 10663 10659 10652 10645 10637 10631 10626 10620 10613 10607 10601 10596 10591 10586 10582 10580
10570 10585 10596 10607 10621 10634 10654 10658 10684 10674 10675 10686 10701 10706 10708 10706 10704 10699 10696 10696 10693 10691 10690 10686 10683 10679 10676 10672 10670 10668 10665 10663 10660 10656 10650 10643 10636 10630 10626 10622 10615 10610 10605 10599 10594 10588 10584 10580 10578
10556 10566 10578 10593 10609 10643 10629 10653 10661 10652 10664 10685 10690 10693 10693 10691 10691 10688 10687 10685 10683 10681 10678 10676 10673 10670 10667 10665 10664 10661 10661 10658 10653 10648 10642 10637 10631 10625 10621 10617 10612 10608 10603 10597 10592 10587 10583 10580 10577
10536 10547 10564 10585 10598 10616 10617 10656 10651 10629 10663 10679 10678 10680 10678 10680 10682 10680 10679 10677 10674 10671 10669 10667 10665 10663 10662 10660 10659 10657 10656 10651 10646 10641 10636 10632 10627 10623 10619 10615 10611 10607 10601 10596 10591 10588 10585 10582 10579
10519 10538 10555 10565 10579 10596 10617 10635 10636 10631 10653 10664 10666 10668 10669 10672 10673 10671 10671 10668 10665 10663 10662 10660 10659 10658 10656 10655 10654 10652 10648 10643 10640 10634 10631 10627 10622 10618 10615 10612 10609 10605 10600 10596 10594 10589 10585 10584 10583
10495 10517 10527 10548 10563 10586 10607 10623 10634 10626 10643 10654 10659 10659 10662 10664 10664 10664 10663 10662 10660 10659 10658 10657 10655 10654 10652 10650 10649 10647 10643 10637 10633 10629 10627 10624 10617 10613 10610 10609 10608 10604 10602 10599 10596 10592 10591 10588 10587
10475 10489 10507 10527 10548 10577 10597 10614 10619 10615 10633 10643 10650 10652 10654 10657 10659 10657 10656 10656 10656 10656 10655 10653 10652 10650 10648 10646 10643 10639 10635 10632 10628 10626 10625 10621 10615 10610 10608 10607 10606 10606 10605 10602 10599 10598 10596 10594 10590
10450 10469 10488 10510 10541 10564 10585 10604 10591 10609 10627 10636 10642 10645 10647 10650 10652 10651 10651 10653 10651 10651 10650 10649 10647 10646 10644 10642 10638 10634 10629 10626 10624 10623 10622 10618 10613 10608 10605 10605 10606 10607 10606 10605 10603 10604 10602 10601 10597